Tracking 30696 objects as of 15-Jun-2025
HD Live streaming from Space Station
objects crossing your sky now

STARLINK-31999

Track STARLINK-31999 now!
10-day predictions
STARLINK-31999 is classified as:


NORAD ID: 60101
Int'l Code: 2024-117L
Perigee: 481.6 km
Apogee: 483.4 km
Inclination: 53.2 °
Period: 94.1 minutes
Semi major axis: 6853 km
RCS: Unknown
Launch date: June 23, 2024
Source: United States (US)
Launch site: AIR FORCE EASTERN TEST RANGE (AFETR)
Your satellite tracking list
Your tracking list is empty




NASA's NSSDC Master Catalog

Two Line Element Set (TLE):
1 60101U 24117L   25166.49270494 -.00003547  00000-0 -10784-3 0  9996
2 60101  53.1592 198.4947 0001357  77.4914 282.6238 15.30151962 55920
Source of the keplerian elements: AFSPC